Mackall AAF, NC

10:22 PM EDT on October 19, 2017 (GMT -0400)
Mackall Army Air Field

Weather History for KHFF - September, 2013

Change the Weather History Date:

Thursday, September 26, 2013

  Actual Average Record
Temperature  
Mean Temperature 68 °F -  
Max Temperature 79 °F 76 °F 87 °F (2007)
Min Temperature 56 °F 58 °F 51 °F (2012)
Cooling Degree Days 2    
Growing Degree Days 18 (Base 50)    
Moisture  
Dew Point 57 °F    
Average Humidity 75    
Maximum Humidity 95    
Minimum Humidity 33    
Precipitation  
Precipitation 0.00 in - - ()
Sea Level Pressure  
Sea Level Pressure 29.94 in    
Wind  
Wind Speed 4 mph (North)    
Max Wind Speed 15 mph    
Max Gust Speed 23 mph    
Visibility 10 miles    
Events Rain    
Averages and records for this station are not official NWS values.
T = Trace of Precipitation, MM = Missing Value Source: NWS Daily Summary

Daily Weather History Graph

Daily Weather History Graph

Search for Another Location

Airport or City:

Trip Planner

Search our weather history database for the weather conditions in past years. The results will help you decide how hot, cold, wet, or windy it might be!

Date:

Astronomy

Sep. 26, 2013 Rise Set
Actual Time 7:09 AM EDT 7:08 PM EDT
Civil Twilight 6:43 AM EDT 7:33 PM EDT
Nautical Twilight 6:14 AM EDT 8:03 PM EDT
Astronomical Twilight 5:44 AM EDT 8:32 PM EDT
Moon No Moon Rise 1:48 PM EDT (9/26)
Length of Visible Light 12h 50m
Length of Day
11h 59m
Waning Gibbous, 55% of the Moon is Illuminated
Sep 26
Waning Gibbous
Sep 26
Last Quarter
Oct 4
New
Oct 11
First Quarter
Oct 18
Full

Hourly Weather History & Observations

Time (EDT) Temp. Dew Point Humidity Pressure Visibility Wind Dir Wind Speed Gust Speed Precip Events Conditions
12:18 AM 62.6 °F 60.8 °F 94% 29.92 in 9.0 mi NW 1.2 mph - N/A   Overcast
12:25 AM 62.6 °F 60.8 °F 94% 29.92 in 9.0 mi North 1.2 mph - N/A Rain Light Rain Showers
12:41 AM 62.6 °F 60.8 °F 94% 29.91 in 8.0 mi NNW 2.3 mph - N/A   Overcast
12:56 AM 63.0 °F 61.2 °F 94% 29.91 in 6.0 mi North 4.6 mph - N/A   Overcast
1:15 AM 62.6 °F 60.8 °F 94% 29.90 in 8.0 mi NNW 3.5 mph - N/A Rain Light Rain Showers
1:36 AM 62.6 °F 60.8 °F 94% 29.90 in 8.0 mi Calm Calm - N/A   Mostly Cloudy
1:48 AM 62.6 °F 60.8 °F 94% 29.89 in 8.0 mi NE 2.3 mph - N/A Rain Light Rain Showers
1:56 AM 62.8 °F 61.0 °F 94% 29.89 in 7.0 mi North 2.3 mph - N/A Rain Light Rain Showers
2:17 AM 62.6 °F 60.8 °F 94% 29.90 in 6.0 mi WNW 2.3 mph - N/A   Mostly Cloudy
2:56 AM 62.4 °F 60.8 °F 94% 29.89 in 6.0 mi WNW 2.3 mph - N/A   Mostly Cloudy
3:56 AM 62.8 °F 61.0 °F 94% 29.91 in 7.0 mi NNW 3.5 mph - N/A   Mostly Cloudy
4:56 AM 62.8 °F 61.0 °F 94% 29.89 in 7.0 mi North 2.3 mph - N/A   Overcast
5:56 AM 61.5 °F 60.1 °F 95% 29.91 in 6.0 mi NNW 3.5 mph - N/A   Partly Cloudy
6:56 AM 61.5 °F 59.9 °F 94% 29.91 in 7.0 mi NNW 3.5 mph - N/A   Mostly Cloudy
7:56 AM 61.0 °F 59.5 °F 95% 29.94 in 4.0 mi North 2.3 mph - N/A   Clear
8:56 AM 64.0 °F 60.3 °F 87% 29.94 in 12.0 mi NNE 4.6 mph - N/A   Clear
9:56 AM 67.6 °F 59.5 °F 75% 29.95 in 12.0 mi ENE 5.8 mph - N/A   Clear
10:56 AM 71.6 °F 57.6 °F 61% 29.97 in 12.0 mi NE 10.4 mph - N/A   Scattered Clouds
11:06 AM 71.6 °F 57.2 °F 60% 29.97 in 12.0 mi ENE 8.1 mph - N/A   Mostly Cloudy
11:22 AM 71.6 °F 57.2 °F 60% 29.97 in 12.0 mi ENE 6.9 mph - N/A   Scattered Clouds
11:56 AM 73.4 °F 54.9 °F 52% 29.97 in 12.0 mi NE 10.4 mph - N/A   Partly Cloudy
12:56 PM 76.5 °F 51.8 °F 42% 29.95 in 12.0 mi NNE 15.0 mph 19.6 mph N/A   Clear
1:56 PM 76.8 °F 50.9 °F 40% 29.94 in 12.0 mi NNE 11.5 mph 23.0 mph N/A   Clear
2:56 PM 77.0 °F 51.3 °F 40% 29.94 in 12.0 mi North 12.7 mph 19.6 mph N/A   Partly Cloudy
3:56 PM 78.1 °F 46.9 °F 33% 29.93 in 12.0 mi NE 10.4 mph 17.3 mph N/A   Partly Cloudy
4:56 PM 77.5 °F 45.9 °F 33% 29.94 in 12.0 mi NE 12.7 mph 18.4 mph N/A   Clear
5:56 PM 75.7 °F 49.8 °F 40% 29.95 in 12.0 mi NNE 8.1 mph - N/A   Clear
6:56 PM 70.3 °F 51.8 °F 52% 29.97 in 12.0 mi NNE 4.6 mph - N/A   Clear
7:56 PM 66.4 °F 53.1 °F 62% 29.99 in 12.0 mi North 5.8 mph - N/A   Clear
8:56 PM 63.5 °F 53.6 °F 70% 30.01 in 12.0 mi North 4.6 mph - N/A   Clear
9:56 PM 60.3 °F 55.0 °F 83% 30.04 in 12.0 mi NNW 4.6 mph - N/A   Clear
10:56 PM 57.2 °F 54.7 °F 91% 30.04 in 12.0 mi NNW 4.6 mph - N/A   Clear
11:56 PM 56.8 °F 54.0 °F 90% 30.04 in 12.0 mi NNW 4.6 mph - N/A   Clear